Retour au catalogue

CZ-2D R/B

ActifVLEO
NORAD 68141·ROCKET BODY·🇨🇳 China

Lancé Mar 12, 2026 depuis Xichang Satellite Launch Center

Loading…

Prochains Passages (prochaines 24 heures)

TLE

FraisSource: Space-Track

Époque: Sep 14, 2026, 21:11 UTC

1 68141U 26048C   26257.88286091  .00001133  00000-0  10169-3 0  9992
2 68141  35.1293  85.4672 0015136 160.4380 199.6912 14.95971144 27848

Suivez CZ-2D R/B en temps réel avec AllMySat

Download on the App Store